Location: Cumonville
(50.2396°N, 2.0398°E)
Time: 02:11:23
(UTC+00:00)

Daily predictions for brighter satellites

Satellite Brightness Start Highest point End
(mag) Time Altitude Azimuth Time Altitude Azimuth Time Altitude Azimuth
CENTAUR R/B 4.3 03:22:50 21° ESE 03:23:04 21° ESE 03:27:48 10° ENE
ATLAS 2AS CENTAUR R/B 4.2 03:37:32 25° SE 03:37:32 25° SE 03:40:03 10° SE
Cosmos 1943 Rocket 3.7 03:57:46 28° NNE 03:57:46 28° NNE 04:00:17 10° NNE
Lacrosse 5 rocket 4.2 04:05:52 14° E 04:05:52 14° E 04:06:26 10° E
Lacrosse 4 Rocket 4.3 04:07:32 12° NE 04:07:32 12° NE 04:07:47 10° NE
CZ-4C R/B 3.7 04:08:37 33° N 04:10:17 38° NNE 04:17:33 10° E
Cosmos 2082 Rocket 4.3 04:18:02 15° SSE 04:18:02 15° SSE 04:18:55 10° SSE
Cosmos 2278 Rocket 3.1 04:20:39 39° NNE 04:20:39 39° NNE 04:24:12 10° NNE
SJ 16-02 3.4 04:25:14 15° SE 04:27:42 25° E 04:31:12 10° NE
Cosmos 540 Rocket 4.3 04:34:16 41° SSE 04:34:16 41° SSE 04:37:33 10° SSE
Cosmos 2184 Rocket 3.8 04:35:55 76° SSW 04:36:26 85° W 04:42:39 10° N
COSMOS 2406 3.2 04:39:53 69° S 04:39:53 69° S 04:44:58 10° SSE
Tiangong 1.1 04:45:22 11° SE 04:45:22 11° SE 04:45:35 10° SE
Timation 2 Rocket 4.1 04:45:22 55° NW 04:45:22 55° NW 04:51:02 10° NNE
Cosmos 1140 Rocket 4.3 04:46:45 38° N 04:46:45 38° N 04:50:05 10° NNE
Meteor 2-10 Rocket 4.3 04:48:17 40° N 04:48:17 40° N 04:51:57 10° N
Cosmos 1707 Rocket 4.0 04:50:13 53° SE 04:50:13 53° SE 04:53:40 10° SSE
Cosmos 1633 Rocket 4.1 04:46:00 10° SSE 04:50:06 44° E 04:54:13 10° NNE
Cosmos 2074 Rocket 3.9 04:50:00 63° WSW 04:50:38 67° WNW 04:56:54 10° N
Cosmos 220 Rocket 4.3 04:54:23 58° SE 04:54:23 58° SE 04:57:49 10° SSE
Gbstr 26 Del rocket 4.2 04:53:48 53° W 04:55:42 79° N 05:02:20 10° E
Cosmos 2251 Rocket 4.3 04:50:42 10° S 04:55:50 52° ESE 05:00:59 10° NNE
Cosmos 841 Rocket 4.3 04:53:13 20° N 04:56:31 47° ENE 05:01:27 10° SE
COSMO-SKYMED 1 2.9 04:55:56 10° SSE 04:59:58 58° ENE 05:01:39 32° N
Cosmos 1610 Rocket 4.3 04:54:01 10° S 05:00:09 88° W 05:06:24 10° N
Nadezhda 3 Rocket 4.0 05:00:32 10° NNW 05:06:39 55° W 05:12:47 10° SSW
Cosmos 1666 Rocket 3.5 05:04:50 10° S 05:09:14 83° E 05:13:41 10° NNE
CENTAUR R/B 2.4 05:09:58 37° SW 05:12:29 86° NW 05:19:45 10° NE
NOSS 3-2 (A) 4.1 05:08:07 10° SSW 05:12:52 45° ESE 05:18:28 10° NE
Cosmos 1190 Rocket 4.4 05:08:29 10° S 05:13:35 63° ESE 05:18:43 10° NNE
Cosmos 2369 Rocket 2.9 05:09:24 10° S 05:14:56 55° ESE 05:20:31 10° NE
SL-8 R/B 4.5 05:13:39 33° SSW 05:15:09 44° SSE 05:19:38 10° E
Cosmos 1953 3.0 05:11:37 10° S 05:15:10 49° E 05:18:45 10° NNE
Cosmos 1656 Rocket 3.6 05:12:22 28° SSW 05:15:31 82° WNW 05:21:11 10° NNE
Meteor 2-5 Rocket 4.0 05:09:43 10° N 05:15:40 75° ENE 05:21:36 10° SSE
Cosmos 1867 4.1 05:13:40 27° NNW 05:16:33 57° NE 05:21:55 10° ESE
CZ-4 R/B 4.0 05:13:57 10° NNE 05:18:50 74° ESE 05:23:46 10° S
ATLAS 2AS CENTAUR R/B 3.9 05:25:01 21° SW 05:25:01 21° SW 05:28:27 10° SSW
Okean 1-7 3.1 05:26:10 49° SW 05:26:10 49° SW 05:29:42 10° S
SL-23 DEB 3.4 05:25:46 68° NNE 05:25:46 68° NNE 05:28:54 10° E
NOAA 12 3.9 05:21:37 10° NNE 05:26:53 79° WNW 05:32:07 10° SSW
BREEZE M DEB (TANK) 4.0 05:27:28 23° SSW 05:27:50 23° SSW 05:32:49 10° SSE
Cosmos 2366 rocket 4.2 05:21:47 10° S 05:27:59 73° E 05:34:18 10° NNE
IGS 5A 4.5 05:24:10 10° NNE 05:28:00 44° E 05:31:49 10° S
Cosmos 2327 Rocket 4.4 05:27:18 10° SSW 05:33:41 74° W 05:40:03 10° N
Helios 1A Rocket 2.8 05:30:50 10° SSE 05:34:08 62° ENE 05:36:27 18° N
NOSS 2-2 (E) 3.3 05:36:08 23° SSW 05:37:55 55° SE 05:40:52 10° NE
Cosmos 1943 Rocket 3.4 05:39:16 22° NW 05:39:16 22° NW 05:43:30 10° NNE
Lacrosse 5 rocket 1.3 05:39:22 46° WSW 05:39:48 49° SW 05:43:26 10° SE
USA 32 4.3 05:36:08 10° SSW 05:41:08 44° WNW 05:46:10 10° N
Lacrosse 4 Rocket 2.9 05:43:01 19° NNW 05:43:01 19° NNW 05:45:05 10° NNE
Cosmos 1328 4.1 05:44:02 38° WSW 05:44:02 38° WSW 05:46:53 10° SSW
Cosmos 1959 Rocket 4.5 05:38:57 10° S 05:45:04 83° E 05:51:12 10° N
Cosmos 2297 3.7 05:39:57 10° SSW 05:45:35 83° ESE 05:51:15 10° NNE
Cosmos 2218 Rocket 4.0 05:39:58 10° S 05:46:20 89° E 05:52:46 10° N
Cosmos 1461 3.6 05:46:42 29° NW 05:46:42 29° NW 05:50:07 10° NNE
Cosmos 1703 Rocket 3.4 05:44:17 10° NNW 05:48:39 84° W 05:52:59 10° S
CZ-2C R/B 4.3 05:48:05 10° NNW 05:48:45 12° NNW 05:48:45 12° NNW
Cosmos 407 Rocket 4.0 05:49:20 27° W 05:51:15 36° NW 05:56:06 10° NNE
Cosmos 1484 Rocket 2.8 05:49:09 10° NNE 05:52:35 66° ESE 05:56:01 10° S
Cosmos 1607 4.0 05:48:11 16° NW 05:53:22 81° NE 05:59:44 10° SE
Cosmos 2263 4.3 05:49:40 10° SSW 05:55:26 80° ESE 06:01:12 10° NNE
Cosmos 1900 4.2 05:52:38 20° NW 05:56:09 81° SW 06:01:02 10° SSE
Cosmos 2228 Rocket 3.7 05:55:52 25° NW 05:57:23 32° W 06:01:16 10° SSW
MOS 1 Rocket 4.4 05:55:00 10° NNE 05:59:09 43° E 06:03:12 10° S
CZ-4C R/B 2.9 05:53:32 16° NW 05:59:18 88° SW 06:07:54 10° SE
Meteor 1-22 Rocket 4.4 05:54:19 10° SSW 06:00:07 52° WNW 06:05:46 10° N
Cosmos 1727 Rocket 4.1 05:54:08 10° N 06:00:22 77° E 06:06:31 10° SSE
CBERS-1 4.5 05:55:32 10° NNE 06:00:37 64° ESE 06:05:40 10° S
Cosmos 2278 Rocket 3.6 06:02:30 18° NW 06:03:39 19° NW 06:07:39 10° N
Cosmos 1470 Rocket 3.6 05:59:58 10° SSW 06:04:08 50° WNW 06:08:21 10° N
Cosmos 968 Rocket 4.1 06:00:03 10° S 06:05:09 59° ESE 06:10:16 10° NNE
SJ 16-02 1.7 06:01:53 12° SW 06:05:37 39° WNW 06:09:40 10° N
Cosmos 371 Rocket 3.5 06:03:07 10° SW 06:07:45 47° WNW 06:12:24 10° NNE
NOSS 2-2 (C) 3.6 06:07:22 27° NW 06:07:47 29° NW 06:10:29 10° NNE
GRACE-FO 1 4.4 06:05:35 10° S 06:09:03 89° NW 06:12:32 10° N
GRACE-FO 2 4.4 06:06:02 10° S 06:09:28 89° W 06:12:59 10° N
SL-8 Rocket 4.1 06:05:57 10° SSW 06:12:05 54° WNW 06:18:11 10° N
Cosmos 1933 Rocket 3.5 06:07:41 10° S 06:12:07 88° W 06:16:34 10° N
Cosmos 304 Rocket 4.1 06:08:32 10° SW 06:13:01 40° WNW 06:17:32 10° NNE
Landsat 7 4.4 06:09:22 10° NNE 06:14:00 61° ESE 06:18:35 10° S
Cosmos 1340 Rocket 2.8 06:11:41 10° S 06:15:24 74° E 06:19:10 10° NNE
Cosmos 2297 Rocket 3.7 06:10:58 10° NNW 06:16:03 32° NE 06:21:05 10° ESE
Molniya-1 3.7 06:13:24 10° SW 06:16:25 86° NW 06:24:01 10° NE
Cosmos 2341 Rocket 4.2 06:10:33 10° SSW 06:16:45 52° WNW 06:22:58 10° N
Meteor 1-15 Rocket 4.5 06:12:57 10° SSW 06:18:38 51° WNW 06:24:26 10° N
Tiangong 0.4 06:17:52 10° SW 06:19:35 14° SSW 06:21:16 10° SSE
IRS-1D 4.2 06:16:02 10° N 06:20:44 33° WNW 06:25:25 10° SW
USA 290 4.0 06:20:28 10° N 06:23:20 29° ENE 06:26:10 10° ESE
SMAP 3.2 06:19:27 10° NNE 06:24:08 80° ESE 06:28:47 10° SSW
Cosmos 2242 Rocket 4.4 06:21:12 10° N 06:25:30 52° ENE 06:29:46 10° SSE
Cosmos 724 4.4 06:21:33 11° NW 06:27:21 63° WSW 06:33:05 10° SSE
In-Cosmos 22 Rocket 4.3 06:21:53 10° NNW 06:27:33 87° ENE 06:33:19 10° SSE
Cosmos 1633 Rocket 4.2 06:24:36 10° WSW 06:27:58 22° WNW 06:31:21 10° NNW
Cosmos 1954 Rocket 4.4 06:26:23 10° SW 06:31:14 41° WNW 06:36:08 10° NNE
Meteor 1-16 Rocket 4.1 06:25:58 10° SSW 06:31:16 61° WNW 06:36:32 10° N
COSMO-SKYMED 1 4.0 06:33:00 10° SW 06:35:37 16° W 06:37:58 11° NW
Cosmos 841 Rocket 4.3 06:33:42 10° NW 06:38:04 29° W 06:42:24 10° SSW
Cosmos 2251 Rocket 4.3 06:33:39 10° WSW 06:38:18 30° NW 06:42:59 10° N
Cosmos 1869 Rocket 3.5 06:34:46 10° SSW 06:39:10 68° WNW 06:43:36 10° N
Cosmos 1821 Rocket 4.1 06:33:14 10° SSW 06:39:27 56° WNW 06:45:38 10° N
Cosmos 1441 Rocket 2.7 06:36:25 10° NNW 06:39:47 72° W 06:43:04 10° S
Cosmos 546 4.5 06:36:25 11° W 06:39:56 86° N 06:43:37 10° E
Cosmos 158 Rocket 4.0 06:35:14 10° NNW 06:40:09 76° ENE 06:45:06 10° SSE
Gbstr 26 Del rocket 4.1 06:35:49 12° WNW 06:42:46 86° SSW 06:48:50 10° ESE
Cosmos 2292 Rocket 3.0 06:40:30 10° N 06:43:38 83° E 06:47:20 10° S
NOSS 2-2 (D) 3.8 06:43:59 10° W 06:46:41 26° NW 06:49:19 10° NNE
Cosmos 2344 4.0 06:40:06 10° NW 06:47:56 90° SE 06:58:30 10° SE
Cosmos 1241 Rocket 4.4 06:41:43 10° SW 06:48:00 74° NW 06:54:15 10° NE
Cosmos 1953 3.7 06:48:14 10° WSW 06:50:30 16° WNW 06:52:48 10° NNW
IRS-1C 4.4 06:46:25 10° NNE 06:51:46 79° ESE 06:57:06 10° SSW
Thor Agena Rocket 3.5 06:48:17 10° NNE 06:53:26 75° WNW 06:58:37 10° SSW
SeaSat 1 3.3 06:49:17 10° NE 06:54:06 55° ESE 06:58:54 10° SSW
SL-08 R/B 3.7 06:50:48 10° SSE 06:55:41 76° ENE 07:00:35 10° NNW
SL-8 R/B 3.9 06:52:29 10° W 06:57:12 72° S 07:01:54 10° E
GP-B 3.3 06:53:39 10° N 06:58:03 79° E 07:02:25 10° S
Cosmos 332 Rocket 3.9 06:54:11 10° SW 06:58:50 54° WNW 07:03:31 10° NNE
Cosmos 2369 Rocket 2.9 06:54:04 10° WSW 06:59:14 34° NW 07:04:26 10° NNE
Cosmos 1867 4.4 06:55:06 10° NW 06:59:54 32° WSW 07:04:40 10° S
SPOT 1/Viking Rocket 3.9 06:56:33 10° NNE 07:01:42 73° ESE 07:06:50 10° S
